FW6831 Weather Reports


time (UTC)temp
F
wind
direction
speed
knots
gust
knots
rain 1hr
in
rain 24hr
in
rain mn
in
humidity
%
barometer
mb
20260508162042 50 0 0.0 0.0 0.00 0.00 0.00 75 1020.5
20260508161551 50 0 0.0 0.0 0.00 0.00 0.00 75 1020.4
20260508161045 50 0 0.0 0.0 0.00 0.00 0.00 75 1020.4
20260508160546 50 0 0.0 0.0 0.00 0.00 0.00 74 1020.4
20260508160109 51 0 0.0 0.0 0.00 0.00 0.00 75 1020.3
20260508155542 51 0 0.0 0.0 0.00 0.00 0.00 74 1020.3
20260508155042 51 0 0.0 0.0 0.00 0.00 0.00 74 1020.3
20260508154557 51 0 0.0 0.0 0.00 0.00 0.00 74 1020.3
20260508154043 52 0 0.0 0.0 0.00 0.00 0.00 75 1020.4
20260508153541 52 0 0.0 0.0 0.00 0.00 0.00 74 1020.4
20260508153048 52 0 0.0 0.0 0.00 0.00 0.00 73 1020.4
20260508152543 52 0 0.0 0.0 0.00 0.00 0.00 72 1020.4
20260508152045 52 0 0.0 0.0 0.00 0.00 0.00 73 1020.3
20260508151552 52 0 0.0 0.0 0.00 0.00 0.00 72 1020.3
20260508151043 53 0 0.0 0.0 0.00 0.00 0.00 73 1020.3
20260508150540 53 0 0.0 0.0 0.00 0.00 0.00 71 1020.2
20260508150051 53 0 0.0 0.0 0.00 0.00 0.00 71 1020.3
20260508145544 53 0 0.0 0.0 0.00 0.00 0.00 70 1020.3
20260508145042 53 0 0.0 0.0 0.00 0.00 0.00 67 1020.2
20260508144549 54 0 0.0 0.0 0.00 0.00 0.00 66 1020.4
20260508144044 54 0 0.0 0.0 0.00 0.00 0.00 66 1020.4
20260508143543 54 0 0.0 0.0 0.00 0.00 0.00 65 1020.3
20260508143105 54 0 0.0 0.0 0.00 0.00 0.00 64 1020.2
20260508142544 54 0 0.0 0.0 0.00 0.00 0.00 64 1020.1
20260508142044 54 0 0.0 0.0 0.00 0.00 0.00 65 1020.2
20260508141555 54 0 0.0 0.0 0.00 0.00 0.00 64 1020.2
20260508141040 54 0 0.0 0.0 0.00 0.00 0.00 66 1020.3
20260508140544 54 0 0.0 0.0 0.00 0.00 0.00 65 1020.4
20260508140051 54 0 0.0 0.0 0.00 0.00 0.00 67 1020.3
20260508135546 54 0 0.0 0.0 0.00 0.00 0.00 66 1020.2
20260508135044 55 0 0.0 0.0 0.00 0.00 0.00 67 1020.2
20260508134549 55 0 0.0 0.0 0.00 0.00 0.00 64 1020.2
20260508134043 55 0 0.0 0.0 0.00 0.00 0.00 63 1020.2
20260508133545 55 0 0.0 0.9 0.00 0.00 0.00 64 1020.1
20260508133057 55 0 0.0 0.9 0.00 0.00 0.00 62 1020.2
20260508132544 55 0 0.0 0.9 0.00 0.00 0.00 63 1020.1
20260508132043 56 311 0.0 1.7 0.00 0.00 0.00 63 1019.9
20260508131548 56 317 0.0 1.7 0.00 0.00 0.00 61 1019.9
20260508131046 56 312 0.0 0.9 0.00 0.00 0.00 61 1019.9
20260508130543 56 297 0.0 0.9 0.00 0.00 0.00 63 1019.9
20260508130056 56 329 0.0 0.9 0.00 0.00 0.00 62 1019.7
20260508125542 57 326 0.0 0.9 0.00 0.00 0.00 62 1019.6
20260508125039 57 0 0.0 0.9 0.00 0.00 0.00 59 1019.6
20260508124548 57 339 0.0 1.7 0.00 0.00 0.00 59 1019.7
20260508124043 57 359 0.0 1.7 0.00 0.00 0.00 58 1019.8
20260508123545 56 0 0.9 1.7 0.00 0.00 0.00 59 1019.7
20260508123053 56 0 0.0 0.9 0.00 0.00 0.00 61 1019.7
20260508122545 56 0 0.0 0.9 0.00 0.00 0.00 61 1019.7
20260508122045 56 0 0.0 0.9 0.00 0.00 0.00 62 1019.8
20260508121605 56 331 0.0 0.9 0.00 0.00 0.00 61 1019.9
20260508121044 56 0 0.0 0.9 0.00 0.00 0.00 62 1020.0
20260508120543 56 0 0.0 0.9 0.00 0.00 0.00 62 1019.9
20260508120054 55 335 0.0 0.9 0.00 0.00 0.00 65 1020.0
20260508115548 55 0 0.0 0.9 0.00 0.00 0.00 64 1019.9
20260508115044 55 0 0.0 1.7 0.00 0.00 0.00 65 1019.9
20260508114548 55 0 0.0 1.7 0.00 0.00 0.00 66 1020.1
20260508114044 55 0 0.0 0.9 0.00 0.00 0.00 67 1019.9
20260508113546 55 0 0.0 0.9 0.00 0.00 0.00 68 1020.0
20260508113052 56 0 0.0 0.9 0.00 0.00 0.00 67 1020.0
20260508112544 56 0 0.0 0.9 0.00 0.00 0.00 66 1020.0
20260508112048 56 321 0.0 1.7 0.00 0.00 0.00 67 1019.8
20260508111550 56 321 0.0 1.7 0.00 0.00 0.00 66 1019.9
20260508111045 56 323 0.0 0.9 0.00 0.00 0.00 66 1019.8
20260508110544 56 316 0.0 0.9 0.00 0.00 0.00 63 1019.7
20260508110059 56 314 0.9 1.7 0.00 0.00 0.00 66 1019.8
20260508105547 57 305 0.0 1.7 0.00 0.00 0.00 64 1019.8
20260508105046 57 318 0.0 1.7 0.00 0.00 0.00 63 1019.6
20260508104555 58 302 0.0 1.7 0.00 0.00 0.00 61 1019.6
20260508104044 58 0 0.0 1.7 0.00 0.00 0.00 60 1019.7
20260508103545 58 330 0.0 1.7 0.00 0.00 0.00 61 1019.7
20260508103055 58 0 0.0 0.9 0.00 0.00 0.00 61 1019.6
20260508102544 58 0 0.0 0.9 0.00 0.00 0.00 61 1019.7
20260508102045 57 0 0.0 0.0 0.00 0.00 0.00 63 1019.5
20260508101552 57 0 0.0 1.7 0.00 0.00 0.00 65 1019.6
20260508101045 56 0 0.0 1.7 0.00 0.00 0.00 65 1019.6
20260508100546 56 322 0.0 1.7 0.00 0.00 0.00 69 1019.6
20260508100051 56 319 0.0 1.7 0.00 0.00 0.00 68 1019.4
20260508095545 56 314 0.0 1.7 0.00 0.00 0.00 68 1019.3
20260508095048 57 322 0.9 1.7 0.00 0.00 0.00 68 1019.3
20260508094609 56 0 0.9 1.7 0.00 0.00 0.00 67 1019.3
20260508094044 56 333 0.0 1.7 0.00 0.00 0.00 69 1019.3
20260508093545 56 323 0.9 1.7 0.00 0.00 0.00 69 1019.2
20260508093049 56 338 0.9 1.7 0.00 0.00 0.00 68 1019.3
20260508092545 57 321 0.9 1.7 0.00 0.00 0.00 64 1019.2
20260508092044 57 0 0.9 1.7 0.00 0.00 0.00 67 1019.2
20260508091555 57 321 0.9 1.7 0.00 0.00 0.00 62 1019.1
20260508091045 57 316 0.9 1.7 0.00 0.00 0.00 64 1019.1
20260508090545 56 322 0.0 1.7 0.00 0.00 0.00 67 1019.0
20260508090051 56 317 0.9 1.7 0.00 0.00 0.00 66 1019.0
20260508085543 56 311 0.9 1.7 0.00 0.00 0.00 70 1018.9
20260508085046 56 316 0.0 1.7 0.00 0.00 0.00 67 1018.8
20260508084553 56 320 0.9 1.7 0.00 0.00 0.00 68 1018.8
20260508084043 56 315 0.9 1.7 0.00 0.00 0.00 65 1018.7
20260508083543 56 319 0.9 1.7 0.00 0.00 0.00 69 1018.7
20260508083130 56 324 0.0 1.7 0.00 0.00 0.00 69 1018.7
20260508082542 56 321 0.9 1.7 0.00 0.00 0.00 69 1018.6
20260508082045 56 321 0.9 0.9 0.00 0.00 0.00 71 1018.5
20260508081555 57 316 0.0 1.7 0.00 0.00 0.00 72 1018.4
20260508081046 57 317 0.9 1.7 0.00 0.00 0.00 72 1018.4
20260508080545 57 305 0.9 2.6 0.00 0.00 0.00 73 1018.0
20260508080100 57 320 0.9 2.6 0.00 0.00 0.00 68 1018.0
20260508075543 58 323 0.0 1.7 0.00 0.00 0.00 68 1017.9
20260508075042 58 0 0.0 0.0 0.00 0.00 0.00 69 1017.9
20260508074548 58 0 0.0 0.0 0.00 0.00 0.00 69 1017.7
20260508074044 59 0 0.0 0.0 0.00 0.00 0.00 68 1017.7
20260508073542 59 0 0.0 0.0 0.00 0.00 0.00 62 1017.8
20260508073057 59 0 0.0 0.0 0.00 0.00 0.00 63 1017.7
20260508072544 60 0 0.0 0.0 0.00 0.00 0.00 64 1017.8
20260508072042 60 0 0.0 0.0 0.00 0.00 0.00 63 1017.7
20260508071555 61 0 0.0 0.0 0.00 0.00 0.00 63 1017.7
20260508071042 61 0 0.0 0.0 0.00 0.00 0.00 62 1017.6
20260508070542 62 0 0.0 0.0 0.00 0.00 0.00 61 1017.5
20260508070048 62 0 0.0 0.0 0.00 0.00 0.00 63 1017.6
20260508065544 63 0 0.0 0.0 0.00 0.00 0.00 59 1017.5
20260508065044 63 0 0.0 0.0 0.00 0.00 0.00 59 1017.4
20260508064607 64 0 0.0 0.0 0.00 0.00 0.00 59 1017.4
20260508064043 64 0 0.0 0.0 0.00 0.00 0.00 56 1017.4
20260508063543 65 0 0.0 0.0 0.00 0.00 0.00 54 1017.3
20260508063048 65 0 0.0 0.0 0.00 0.00 0.00 51 1017.2
20260508062542 65 0 0.0 0.0 0.00 0.00 0.00 49 1017.2
20260508062042 66 0 0.0 0.0 0.00 0.00 0.00 46 1017.3
20260508061549 66 0 0.0 0.0 0.00 0.00 0.00 46 1017.2
20260508061042 66 0 0.0 0.0 0.00 0.00 0.00 46 1017.2
20260508060546 67 0 0.0 0.0 0.00 0.00 0.00 44 1017.2
20260508060047 67 0 0.0 0.0 0.00 0.00 0.00 44 1017.2
20260508055544 67 0 0.0 0.0 0.00 0.00 0.00 42 1017.3
20260508055044 67 0 0.0 0.0 0.00 0.00 0.00 42 1017.3
20260508054554 68 0 0.0 1.7 0.00 0.00 0.00 39 1017.3
20260508054048 68 0 0.0 1.7 0.00 0.00 0.00 38 1017.3
20260508053545 68 0 0.0 0.0 0.00 0.00 0.00 34 1017.3
20260508053049 69 0 0.0 0.9 0.00 0.00 0.00 35 1017.5
20260508052545 69 0 0.0 0.9 0.00 0.00 0.00 37 1017.5
20260508052047 69 0 0.0 3.5 0.00 0.00 0.00 37 1017.4
20260508051550 70 0 0.0 3.5 0.00 0.00 0.00 35 1017.5
20260508051045 70 0 0.9 3.5 0.00 0.00 0.00 31 1017.5
20260508050545 70 0 0.0 5.2 0.00 0.00 0.00 32 1017.4
20260508050058 70 221 0.9 6.1 0.00 0.00 0.00 31 1017.5
20260508045546 71 0 0.0 6.1 0.00 0.00 0.00 32 1017.5
20260508045047 71 341 1.7 6.1 0.00 0.00 0.00 29 1017.5
20260508044556 72 305 0.0 1.7 0.00 0.00 0.00 30 1017.6
20260508044043 72 0 0.0 2.6 0.00 0.00 0.00 30 1017.7
20260508043544 71 0 0.0 3.5 0.00 0.00 0.00 31 1017.7
20260508043055 72 1 0.9 3.5 0.00 0.00 0.00 28 1017.7
20260508042545 72 0 0.0 2.6 0.00 0.00 0.00 31 1017.7
20260508042047 71 268 0.9 2.6 0.00 0.00 0.00 31 1017.7
20260508041603 71 259 0.9 4.3 0.00 0.00 0.00 30 1017.8
20260508041047 71 0 0.9 4.3 0.00 0.00 0.00 30 1017.8
20260508040544 70 266 0.0 3.5 0.00 0.00 0.00 28 1017.8
20260508040110 70 188 0.9 5.2 0.00 0.00 0.00 29 1017.9
20260508035544 70 0 0.0 5.2 0.00 0.00 0.00 32 1018.0
20260508035044 71 223 0.0 2.6 0.00 0.00 0.00 30 1018.0
20260508034555 70 276 0.9 5.2 0.00 0.00 0.00 32 1018.0
20260508034044 70 0 1.7 5.2 0.00 0.00 0.00 32 1018.1
20260508033543 70 0 0.9 5.2 0.00 0.00 0.00 33 1018.1
20260508033053 69 226 2.6 5.2 0.00 0.00 0.00 33 1018.2
20260508032544 70 282 0.9 5.2 0.00 0.00 0.00 33 1018.3
20260508032046 70 339 1.7 5.2 0.00 0.00 0.00 33 1018.3
20260508031551 71 252 0.0 5.2 0.00 0.00 0.00 34 1018.4
20260508031044 70 0 0.0 5.2 0.00 0.00 0.00 35 1018.4
20260508030544 69 257 0.9 5.2 0.00 0.00 0.00 33 1018.4
20260508030109 69 309 0.0 4.3 0.00 0.00 0.00 36 1018.5
20260508025545 69 245 1.7 4.3 0.00 0.00 0.00 35 1018.4
20260508025044 69 269 0.9 4.3 0.00 0.00 0.00 37 1018.4
20260508024558 69 285 0.9 6.1 0.00 0.00 0.00 36 1018.6
20260508024044 69 240 0.0 6.1 0.00 0.00 0.00 35 1018.7
20260508023544 68 235 1.7 4.3 0.00 0.00 0.00 35 1018.8
20260508023049 68 188 1.7 4.3 0.00 0.00 0.00 34 1018.7
20260508022544 68 24 1.7 4.3 0.00 0.00 0.00 34 1018.8
20260508022044 68 56 1.7 6.1 0.00 0.00 0.00 33 1018.8
20260508021549 67 1 1.7 6.1 0.00 0.00 0.00 35 1018.9
20260508021043 68 187 0.9 6.1 0.00 0.00 0.00 35 1019.1
20260508020544 68 245 0.9 4.3 0.00 0.00 0.00 35 1019.3
20260508020050 68 169 0.0 3.5 0.00 0.00 0.00 35 1019.5
20260508015544 68 290 0.0 6.1 0.00 0.00 0.00 32 1019.5
20260508015044 68 0 0.9 6.1 0.00 0.00 0.00 33 1019.5
20260508014553 67 309 1.7 5.2 0.00 0.00 0.00 33 1019.7
20260508014045 67 340 0.9 3.5 0.00 0.00 0.00 36 1019.9
20260508013544 67 242 0.9 2.6 0.00 0.00 0.00 36 1020.1
20260508013048 66 297 0.9 2.6 0.00 0.00 0.00 37 1020.1
20260508012544 66 222 0.0 6.1 0.00 0.00 0.00 36 1020.0
20260508012044 65 304 0.9 6.1 0.00 0.00 0.00 38 1020.2
20260508011600 66 323 0.9 4.3 0.00 0.00 0.00 37 1020.2
20260508011045 66 305 0.9 4.3 0.00 0.00 0.00 39 1020.4
20260508010544 66 332 0.9 4.3 0.00 0.00 0.00 36 1020.4
20260508010059 66 245 0.9 2.6 0.00 0.00 0.00 36 1020.4
20260508005544 66 306 0.0 3.5 0.00 0.00 0.00 38 1020.5
20260508005044 65 296 0.9 3.5 0.00 0.00 0.00 39 1020.7
20260508004559 64 224 0.9 4.3 0.00 0.00 0.00 37 1020.6
20260508004044 65 274 0.0 4.3 0.00 0.00 0.00 41 1020.9
20260508003543 64 242 0.0 4.3 0.00 0.00 0.00 39 1020.9
20260508003108 64 174 1.7 4.3 0.00 0.00 0.00 36 1020.9
20260508002544 64 0 0.9 4.3 0.00 0.00 0.00 39 1020.9
20260508002044 63 312 1.7 5.2 0.00 0.00 0.00 38 1021.0
20260508001552 63 360 0.9 5.2 0.00 0.00 0.00 37 1021.1
20260508001044 62 268 0.9 5.2 0.00 0.00 0.00 37 1021.1
20260508000548 62 263 1.7 4.3 0.00 0.00 0.00 37 1021.1
20260508000050 62 188 1.7 4.3 0.00 0.00 0.00 38 1021.3
20260507235544 62 185 1.7 5.2 0.00 0.00 0.00 36 1021.3
20260507235044 62 207 0.9 5.2 0.00 0.00 0.00 38 1021.3
20260507234548 62 201 1.7 4.3 0.00 0.00 0.00 37 1021.4
20260507234043 62 261 1.7 5.2 0.00 0.00 0.00 38 1021.4
20260507233544 61 266 0.9 5.2 0.00 0.00 0.00 40 1021.4
20260507233052 61 158 2.6 6.1 0.00 0.00 0.00 38 1021.5
20260507232544 61 254 0.9 8.7 0.00 0.00 0.00 41 1021.6
20260507232044 61 215 3.5 8.7 0.00 0.00 0.00 39 1021.4
20260507231605 62 0 0.0 1.7 0.00 0.00 0.00 42 1021.3
20260507231044 61 262 0.0 4.3 0.00 0.00 0.00 47 1021.3
20260507230544 61 0 0.9 4.3 0.00 0.00 0.00 48 1021.4
20260507230056 61 0 0.0 0.0 0.00 0.00 0.00 49 1021.3
20260507225544 61 0 0.0 0.0 0.00 0.00 0.00 52 1021.1
20260507225044 60 0 0.0 0.0 0.00 0.00 0.00 51 1021.3
20260507224557 59 0 0.0 0.0 0.00 0.00 0.00 53 1021.4
20260507224044 59 0 0.0 0.0 0.00 0.00 0.00 55 1021.4
20260507223544 59 0 0.0 0.0 0.00 0.00 0.00 54 1021.4
20260507223049 58 0 0.0 0.0 0.00 0.00 0.00 63 1021.5
20260507222546 58 0 0.0 0.0 0.00 0.00 0.00 62 1021.5
20260507222043 57 0 0.0 0.0 0.00 0.00 0.00 64 1021.4
20260507221550 57 0 0.0 0.0 0.00 0.00 0.00 66 1021.1
20260507221044 56 0 0.0 0.0 0.00 0.00 0.00 66 1021.0
20260507220545 54 0 0.0 0.0 0.00 0.00 0.00 68 1020.9
20260507220048 54 0 0.0 0.0 0.00 0.00 0.00 66 1020.9
20260507215547 54 0 0.0 0.0 0.00 0.00 0.00 66 1021.0
20260507215045 53 0 0.0 0.0 0.00 0.00 0.00 69 1020.9
20260507214553 53 0 0.0 0.0 0.00 0.00 0.00 68 1020.9
20260507214044 52 0 0.0 0.0 0.00 0.00 0.00 69 1020.9
20260507213544 52 0 0.0 0.0 0.00 0.00 0.00 71 1020.9
20260507213104 51 0 0.0 0.0 0.00 0.00 0.00 71 1020.9
20260507212546 50 0 0.0 0.0 0.00 0.00 0.00 75 1020.9
20260507212044 50 0 0.0 0.0 0.00 0.00 0.00 75 1020.8
20260507211549 49 0 0.0 0.0 0.00 0.00 0.00 76 1020.9
20260507211043 49 0 0.0 0.0 0.00 0.00 0.00 76 1020.8
20260507210544 48 0 0.0 0.0 0.00 0.00 0.00 79 1020.7
20260507210054 48 0 0.0 0.0 0.00 0.00 0.00 76 1020.6
20260507205546 48 0 0.0 0.0 0.00 0.00 0.00 74 1020.6
20260507205043 48 0 0.0 0.0 0.00 0.00 0.00 76 1020.5
20260507204601 47 0 0.0 0.0 0.00 0.00 0.00 73 1020.5
20260507204043 47 0 0.0 0.0 0.00 0.00 0.00 76 1020.3
20260507203547 47 0 0.0 0.0 0.00 0.00 0.00 78 1020.4
20260507203050 47 0 0.0 0.0 0.00 0.00 0.00 77 1020.3
20260507202544 47 0 0.0 0.0 0.00 0.00 0.00 79 1020.4
20260507202044 47 0 0.0 0.0 0.00 0.00 0.00 78 1020.4
20260507201553 47 0 0.0 0.0 0.00 0.00 0.00 78 1020.3
20260507201047 47 0 0.0 0.0 0.00 0.00 0.00 79 1020.1
20260507200546 47 0 0.0 0.0 0.00 0.00 0.00 78 1020.1
20260507200049 47 0 0.0 0.0 0.00 0.00 0.00 77 1020.1
20260507195545 48 0 0.0 0.0 0.00 0.00 0.00 78 1020.0
20260507195047 48 0 0.0 0.0 0.00 0.00 0.00 78 1019.9
20260507194552 48 0 0.0 0.0 0.00 0.00 0.00 78 1019.8
20260507194043 48 0 0.0 0.0 0.00 0.00 0.00 77 1019.8
20260507193543 48 0 0.0 0.0 0.00 0.00 0.00 76 1019.7
20260507193108 49 0 0.0 0.0 0.00 0.00 0.00 76 1019.8
20260507192543 49 0 0.0 0.0 0.00 0.00 0.00 74 1019.6
20260507192044 49 0 0.0 0.0 0.00 0.00 0.00 75 1019.7
20260507191554 49 0 0.0 0.0 0.00 0.00 0.00 76 1019.6
20260507191043 49 0 0.0 0.0 0.00 0.00 0.00 76 1019.6
20260507190543 50 0 0.0 0.0 0.00 0.00 0.00 75 1019.4
20260507185544 50 0 0.0 0.0 0.00 0.00 0.00 73 1019.3
20260507185044 50 0 0.0 0.0 0.00 0.00 0.00 72 1019.2
20260507184553 50 0 0.0 0.0 0.00 0.00 0.00 71 1019.1
20260507184044 51 0 0.0 0.0 0.00 0.00 0.00 71 1019.1
20260507183543 50 0 0.0 0.0 0.00 0.00 0.00 70 1018.9
20260507183100 50 0 0.0 0.0 0.00 0.00 0.00 72 1018.9
20260507182546 50 0 0.0 0.0 0.00 0.00 0.00 72 1018.9
20260507182044 50 0 0.0 0.0 0.00 0.00 0.00 72 1019.0
20260507181550 50 0 0.0 0.0 0.00 0.00 0.00 74 1019.0
20260507181044 51 0 0.0 0.0 0.00 0.00 0.00 75 1018.8
20260507180544 51 0 0.0 0.0 0.00 0.00 0.00 73 1019.1
20260507180052 51 0 0.0 0.0 0.00 0.00 0.00 74 1018.9
20260507175543 51 0 0.0 0.0 0.00 0.00 0.00 73 1019.0
20260507175044 52 0 0.0 0.0 0.00 0.00 0.00 72 1018.8
20260507174552 52 0 0.0 0.0 0.00 0.00 0.00 71 1018.8
20260507174046 52 0 0.0 0.0 0.00 0.00 0.00 71 1018.8
20260507173544 52 0 0.0 0.0 0.00 0.00 0.00 72 1018.7
20260507173054 52 0 0.0 0.0 0.00 0.00 0.00 70 1018.6
20260507172548 53 0 0.0 0.0 0.00 0.00 0.00 71 1018.6
20260507172045 53 0 0.0 0.0 0.00 0.00 0.00 70 1018.5
20260507171556 53 0 0.0 0.0 0.00 0.00 0.00 70 1018.5
20260507171044 53 0 0.0 0.0 0.00 0.00 0.00 71 1018.3
20260507170544 53 0 0.0 0.0 0.00 0.00 0.00 70 1018.4
20260507170051 53 0 0.0 0.0 0.00 0.00 0.00 72 1018.3
20260507165548 54 0 0.0 0.9 0.00 0.00 0.00 73 1018.2
20260507165045 54 0 0.0 0.9 0.00 0.00 0.00 71 1018.3
20260507164556 54 0 0.0 0.9 0.00 0.00 0.00 72 1018.3
20260507164044 54 0 0.0 0.9 0.00 0.00 0.00 71 1018.5
20260507163547 54 0 0.0 1.7 0.00 0.00 0.00 68 1018.4
20260507163053 55 0 0.0 3.5 0.00 0.00 0.00 68 1018.5
20260507162541 55 0 0.0 3.5 0.00 0.00 0.00 68 1018.4